This is the latest recevied weather packets stored in our database for station/object KI8L. If no packets are shown the sender has not sent any weather packets the latest 10 day(s).
| Time | Temp. | Humidity | Pressure | Rain* | Wind** | Luminosity | Snow |
|---|---|---|---|---|---|---|---|
| 1777923943 | 22.22° C | 58% | 1007.8 hPa | 0 mm | - | 681 W/m² | - |
| 1777923638 | 21.67° C | 58% | 1007.9 hPa | 0 mm | - | 502 W/m² | - |
| 1777923335 | 22.22° C | 57% | 1008.1 hPa | 0 mm | - | 239 W/m² | - |
| 1777923034 | 22.22° C | 59% | 1008.2 hPa | 0 mm | - | 646 W/m² | - |
| 1777922732 | 21.67° C | 61% | 1008.1 hPa | 0 mm | - | 704 W/m² | - |
| 1777922429 | 21.67° C | 58% | 1008 hPa | 0 mm | - | 244 W/m² | - |
| 1777922127 | 21.67° C | 61% | 1008.2 hPa | 0 mm | - | 629 W/m² | - |
| 1777921823 | 21.67° C | 59% | 1008.3 hPa | 0 mm | - | 629 W/m² | - |
| 1777921519 | 21.67° C | 61% | 1008.3 hPa | 0 mm | - | 640 W/m² | - |
| 1777921215 | 21.67° C | 60% | 1008.4 hPa | 0 mm | - | 629 W/m² | - |
| 1777920913 | 21.67° C | 56% | 1008.5 hPa | 0 mm | - | 631 W/m² | - |
| 1777920609 | 21.67° C | 60% | 1008.5 hPa | 0 mm | - | 646 W/m² | - |
| 1777920304 | 21.11° C | 59% | 1008.8 hPa | 0 mm | - | 659 W/m² | - |
| 1777920000 | 21.11° C | 59% | 1008.9 hPa | 0 mm | - | 650 W/m² | - |
| 1777919697 | 21.11° C | 59% | 1008.8 hPa | 0 mm | - | 660 W/m² | - |
| 1777919395 | 21.11° C | 62% | 1008.6 hPa | 0 mm | - | 657 W/m² | - |
| 1777919092 | 21.11° C | 62% | 1008.8 hPa | 0 mm | - | 661 W/m² | - |
| 1777918789 | 20.56° C | 62% | 1008.8 hPa | 0 mm | - | 674 W/m² | - |
| 1777918486 | 20.56° C | 58% | 1008.9 hPa | 0 mm | - | 674 W/m² | - |
| 1777918185 | 21.11° C | 60% | 1008.9 hPa | 0 mm | - | 675 W/m² | - |
| 1777917883 | 20.56° C | 60% | 1008.9 hPa | 0 mm | - | 676 W/m² | - |
| 1777917581 | 20.56° C | 59% | 1009.1 hPa | 0 mm | - | 681 W/m² | - |
| 1777917278 | 21.11° C | 59% | 1009 hPa | 0 mm | - | 679 W/m² | - |
| 1777916976 | 20.56° C | 61% | 1009.1 hPa | 0 mm | - | 686 W/m² | - |
| 1777916673 | 20.56° C | 66% | 1009.2 hPa | 0 mm | - | 685 W/m² | - |
* Rain latest hour (hover to see other rain measurements)
** Current wind speed in m/s (hover to see current wind gust speed)